Regional Weather Roundup
Issued by NWS

Home | Current Version | Previous Version | Text Only | Print | Product List | Glossary Off
Versions: 1 2 3 4 5 6 7 8 9 10 11 12 13 14 15 16 17 18 19 20 21 22 23 24 25 26 27 28 29 30 31 32 33 34 35 36 37 38 39 40 41 42 43 44 45 46 47 48 49 50

000
ASUS45 KABQ 270010
RWRNM
NEW MEXICO REGIONAL WEATHER ROUNDUP
NATIONAL WEATHER SERVICE ALBUQUERQUE NM
600 PM MDT FRI AUG 26 2016

NOTE: "FAIR" MEANS FEW OR NO CLOUDS BELOW 12,000 FEET AGL WITH NO
       SIGNIFICANT WEATHER OR OBSTRUCTIONS TO VISION.

      THIS PRODUCT IS RELEASED AS TWO VERSIONS.  ONE VERSION NEAR
      THE TOP OF THE HOUR CONTAINING PRELIMINARY DATA FROM ALBUQUERQUE
      AND OTHER STATIONS.  A FINAL VERSION WITH ADDITIONAL DATA IS
      ISSUED ABOUT 10 MINUTES AFTER THE HOUR.

NMZ501-503-504-510>518-270100-
NORTHWEST PLATEAU/NORTHCENTRAL MOUNTAINS

CITY           SKY/WX    TMP DP  RH WIND       PRES   REMARKS
FARMINGTON     FAIR      77  36  22 SW12      30.12S
6HR MIN TEMP:  69; 6HR MAX TEMP:  79;

LOS ALAMOS     CLOUDY    64  49  58 CALM      30.26S
SANTA FE       CLOUDY    71  49  45 N8        30.19S
6HR MIN TEMP:  67; 6HR MAX TEMP:  76; 6HR PCP: TRACE;

TAOS           FAIR      70  43  37 W10G17    30.23S
ANGEL FIRE     FAIR      61  43  50 W5        30.33R

$$
NMZ402-403-502-505>509-270100-
WESTCENTRAL MOUNTAINS/SOUTHWEST MOUNTAINS

CITY           SKY/WX    TMP DP  RH WIND       PRES   REMARKS
GALLUP         FAIR      73  42  32 SW9       30.19F
6HR MIN TEMP:  66; 6HR MAX TEMP:  75;

GRANTS         FAIR      71  42  35 SE3       30.23S
SILVER CITY    PTSUNNY   78  50  36 SW6       30.12S

$$
NMZ407-409-411-412-270100-
SOUTHERN DESERTS

CITY           SKY/WX    TMP DP  RH WIND       PRES   REMARKS
DEMING         FAIR      85  50  29 SW12      30.04R
6HR MIN TEMP:  80; 6HR MAX TEMP:  89;

LAS CRUCES     FAIR      86  42  21 S6        30.06S
ALAMOGORDO     FAIR      82  50  32 N20       30.07R
T OR C         PTSUNNY   75  49  39 W12       30.10F
6HR MIN TEMP:  74; 6HR MAX TEMP:  81;


$$
NMZ519>523-270100-
CENTRAL VALLEYS/CENTRAL HIGHLANDS

CITY           SKY/WX    TMP DP  RH WIND       PRES   REMARKS
ALBUQUERQUE    PTSUNNY   78  44  29 CALM      30.13S
6HR MIN TEMP:  71; 6HR MAX TEMP:  81; 6HR PCP: TRACE;

DOUBLE EAGLE   PTSUNNY   75  45  33 VRB6      30.17S
MORIARTY ARPT  CLOUDY    70  47  44 NE6       30.21S
6HR MIN TEMP:  63; 6HR MAX TEMP:  75;

CLINES CORNERS PTSUNNY   68  46  45 NW5       30.26R
6HR MIN TEMP:  61; 6HR MAX TEMP:  73; 6HR PCP: TRACE;

BELEN          PTSUNNY   80  40  23 NW7       30.12R
6HR MIN TEMP:  73; 6HR MAX TEMP:  82;

SOCORRO        FAIR      78  42  27 W3        30.11S
6HR MIN TEMP:  72; 6HR MAX TEMP:  82;


$$
NMZ524>526-539-540-270100-
SOUTHCENTRAL MOUNTAINS

CITY           SKY/WX    TMP DP  RH WIND       PRES   REMARKS
RUIDOSO          N/A     66  50  55 N8        30.28R

$$
NMZ527>531-270100-
NORTHEAST HIGHLANDS/NORTHEAST PLAINS

CITY           SKY/WX    TMP DP  RH WIND       PRES   REMARKS
LAS VEGAS      FAIR      60  51  72 S10       30.24S
6HR MIN TEMP:  51; 6HR MAX TEMP:  72; 6HR PCP:  0.67;

RATON          FAIR      68  50  52 S15       30.16R
6HR MIN TEMP:  67; 6HR MAX TEMP:  73; 6HR PCP: TRACE;

CLAYTON        FAIR      67  56  67 W9        30.09F
6HR MIN TEMP:  66; 6HR MAX TEMP:  80; 6HR PCP:  0.06;


$$
NMZ532>537-270100-
EASTCENTRAL PLAINS

CITY           SKY/WX    TMP DP  RH WIND       PRES   REMARKS
TUCUMCARI      FAIR      80  55  42 SW7       30.04F
6HR MIN TEMP:  75; 6HR MAX TEMP:  87; 6HR PCP: TRACE;

CANNON AFB     PTSUNNY   81  55  39 S6        30.07F
6HR MIN TEMP:  75; 6HR MAX TEMP:  86;

CLOVIS AIRPORT PTSUNNY   81  55  41 SE9       30.08S

$$
NMZ028-029-538-270100-
SOUTHEAST PLAINS

CITY           SKY/WX    TMP DP  RH WIND       PRES   REMARKS
ROSWELL        FAIR      83  54  36 SE7       30.03F
6HR MIN TEMP:  75; 6HR MAX TEMP:  86;

ARTESIA        FAIR      82  61  47 SE7       30.04S
CARLSBAD       FAIR      85  58  39 SE5       30.01S
6HR MIN TEMP:  75; 6HR MAX TEMP:  85;

HOBBS          MOSUNNY   77  63  61 SE16      30.07S


$$




USA.gov is the U.S. government's official web portal to all federal, state and local government web resources and services.